[[{"header":{"parameterUnit":"m.s-1","parameterCategory":1,"la1":30.2992,"la2":30.254,"lo1":-89.0895,"lo2":-89.0443,"dy":0.0025,"dx":0.0025,"nx":19,"ny":19,"refTime":"2026-04-30T09:00:00:Z","depth":0,"parameterNumber":2,"parameterNumberName":"U-component_of_WINDS"},"data":[0,0,0,-4.4304,-4.4308,-4.447,-4.4471,-4.4719,-4.4722,0,0,0,0,0,0,0,0,0,0,0,-4.4276,-4.4279,-4.4304,-4.4308,-4.447,-4.4471,-4.4719,-4.4722,0,0,0,0,0,0,0,0,0,0,0,-4.4275,-4.4278,-4.4281,-4.4309,-4.447,-4.4471,-4.4718,-4.4583,0,0,0,0,0,0,0,0,0,0,-4.4419,-4.4411,-4.4277,-4.4281,-4.431,-4.447,-4.4471,-4.4575,-4.4591,-4.4662,0,-4.4726,0,-4.4728,-4.4741,-4.4742,0,0,0,-4.4295,-4.4399,-4.4423,-4.4281,-4.4312,-4.447,-4.4393,-4.4584,-4.4602,-4.4683,-4.4729,-4.4738,-4.4732,-4.4743,-4.4744,-4.5188,-4.5191,0,0,-4.4286,-4.4318,-4.4411,-4.4436,-4.4407,-4.4388,-4.4399,-4.4594,-4.4649,-4.473,-4.4743,-4.4736,-4.4745,-4.4747,-4.5185,-4.5189,0,0,0,-4.4269,-4.4312,-4.4331,-4.4426,-4.4452,-4.4393,-4.4405,-4.464,-4.4643,-4.4745,-4.4739,-4.4746,-4.475,-4.5182,-4.5187,-4.5351,0,0,0,-4.4263,-4.4302,-4.4328,-4.4349,-4.4449,-4.4547,-4.4447,-4.463,-4.465,-4.4738,-4.4746,-4.4752,-4.5179,-4.5185,-4.534,-4.5425,0,0,0,-4.4259,-4.4301,-4.4331,-4.4351,-4.442,-4.4543,-4.4557,-4.4633,-4.4648,-4.4742,-4.4753,-4.5177,-4.5184,-4.533,-4.5408,-4.5552,0,0,0,-4.4265,-4.4477,-4.4334,-4.4568,-4.4419,-4.4641,-4.4555,-4.472,-4.482,-4.4748,-4.518,-4.5186,-4.5327,-4.5398,-4.5541,-4.568,-4.5739,0,0,-4.455,-4.4512,-4.4647,-4.4524,-4.4779,-4.4614,-4.4894,-4.4958,-4.4941,-4.5108,-4.5118,-4.5343,-4.5407,-4.555,-4.6058,-4.6105,0,0,0,-4.4749,-4.4847,-4.4907,-4.5001,-4.5052,-4.5105,-4.5121,-4.5145,-4.5284,-4.5031,-4.5431,-4.5469,-4.5551,-4.5616,-4.5657,-4.5727,-4.5217,-4.5216,-4.5215,-4.5201,-4.5162,-4.5384,-4.5366,-4.546,-4.5474,-4.5548,-4.5583,-4.552,-4.5616,-4.5666,-4.5979,-4.6056,-4.6086,-4.6159,-4.5734,-4.5735,-4.5735,-4.5736,-4.5617,-4.5751,-4.5658,-4.5841,-4.5801,-4.5956,-4.598,-4.593,-4.6072,-4.5937,-4.6008,-4.5868,-4.6139,-4.6202,-4.5748,-4.5745,-4.5744,-4.5743,-4.5742,-4.5911,-4.5968,-4.599,-4.6122,-4.623,-4.6206,-4.6345,-4.6304,-4.6268,-4.6338,-4.6388,-4.6386,-4.638,-4.6364,-4.6365,-4.6366,-4.6367,-4.6368,-4.6368,-4.6208,-4.6227,-4.6347,-4.6418,-4.6473,-4.6542,-4.6558,-4.6613,-4.6665,-4.6625,-4.6626,-4.6556,-4.617,-4.6076,-4.6385,-4.6382,-4.638,-4.6378,-4.6377,-4.6649,-4.6542,-4.6727,-4.6783,-4.6863,-4.6975,-4.6919,-4.7036,-4.7076,-4.7147,-4.7061,-4.6781,-4.6742,-4.6709,-4.6631,-4.7066,-4.7066,-4.7066,-4.7066,-4.69,-4.6873,-4.7053,-4.7145,-4.723,-4.7198,-4.7415,-4.743,-4.7431,-4.7455,-4.7385,-4.7277,-4.7246,-4.7225,-4.7182,-4.7108,-4.7654,-4.7655,-4.7655,-4.717,-4.715,-4.7339,-4.7333,-4.7393,-4.7447,-4.7649,-4.7763,-4.7742,-4.7679,-4.7473,-4.7449,-4.7273,-4.7218,-4.7153,-4.7086,-4.6951,0,0]},{"header":{"parameterUnit":"m.s-1","parameterCategory":1,"la1":30.2992,"la2":30.254,"lo1":-89.0895,"lo2":-89.0443,"dy":0.0025,"dx":0.0025,"nx":19,"ny":19,"refTime":"2026-04-30T09:00:00:Z","depth":0,"parameterNumber":3,"parameterNumberName":"V-component_of_WINDS"},"data":[0,0,0,-4.3912,-4.3912,-4.3882,-4.3882,-4.3855,-4.3855,0,0,0,0,0,0,0,0,0,0,0,-4.3931,-4.3931,-4.3912,-4.3912,-4.3882,-4.3882,-4.3855,-4.3855,0,0,0,0,0,0,0,0,0,0,0,-4.3931,-4.3931,-4.3931,-4.3912,-4.3882,-4.3881,-4.3855,-4.3873,0,0,0,0,0,0,0,0,0,0,-4.39,-4.3927,-4.3931,-4.3931,-4.3912,-4.3882,-4.3881,-4.3873,-4.3871,-4.3874,0,-4.3881,0,-4.3868,-4.3854,-4.3854,0,0,0,-4.3904,-4.3929,-4.3912,-4.3931,-4.3911,-4.3882,-4.3893,-4.3872,-4.387,-4.3872,-4.3881,-4.3879,-4.3867,-4.3854,-4.3854,-4.3898,-4.3898,0,0,-4.3906,-4.393,-4.3913,-4.3911,-4.3919,-4.3894,-4.3892,-4.3871,-4.3881,-4.3881,-4.3878,-4.3867,-4.3854,-4.3853,-4.3897,-4.3898,0,0,0,-4.3916,-4.3932,-4.3915,-4.3913,-4.3907,-4.3893,-4.3891,-4.3882,-4.3875,-4.3878,-4.3866,-4.3853,-4.3853,-4.3896,-4.3897,-4.3949,0,0,0,-4.3916,-4.3938,-4.3916,-4.3931,-4.3907,-4.3895,-4.3904,-4.3876,-4.3873,-4.3867,-4.3853,-4.3853,-4.3896,-4.3897,-4.3946,-4.3969,0,0,0,-4.3929,-4.3939,-4.3938,-4.3933,-4.3921,-4.3894,-4.3885,-4.3875,-4.3866,-4.3854,-4.3853,-4.3895,-4.3897,-4.3944,-4.3965,-4.3986,0,0,0,-4.395,-4.3986,-4.394,-4.3974,-4.3921,-4.3928,-4.3885,-4.3889,-4.3884,-4.3853,-4.3896,-4.3897,-4.3943,-4.3962,-4.3983,-4.4007,-4.402,0,0,-4.4009,-4.3994,-4.4012,-4.397,-4.3991,-4.393,-4.3957,-4.3929,-4.3905,-4.3901,-4.3901,-4.3947,-4.3964,-4.3985,-4.4086,-4.4097,0,0,0,-4.4038,-4.4052,-4.4052,-4.4049,-4.4029,-4.4012,-4.3977,-4.3966,-4.3961,-4.3909,-4.3961,-4.397,-4.3981,-4.3991,-4.4,-4.4007,-4.3904,-4.3903,-4.3903,-4.4156,-4.4123,-4.415,-4.4112,-4.411,-4.4072,-4.4066,-4.4044,-4.4012,-4.4024,-4.4022,-4.4088,-4.4101,-4.4107,-4.4114,-4.4033,-4.4034,-4.4034,-4.4034,-4.4237,-4.4249,-4.4204,-4.4214,-4.4177,-4.4184,-4.4147,-4.4123,-4.4122,-4.4087,-4.4095,-4.4058,-4.412,-4.4124,-4.4037,-4.4037,-4.4036,-4.4036,-4.4036,-4.4309,-4.4309,-4.4295,-4.4285,-4.4281,-4.4241,-4.4241,-4.4208,-4.4176,-4.4184,-4.4177,-4.4176,-4.4169,-4.4183,-4.4184,-4.4184,-4.4184,-4.4184,-4.4184,-4.4389,-4.4371,-4.4377,-4.4357,-4.4349,-4.4334,-4.4294,-4.4284,-4.4265,-4.424,-4.424,-4.4204,-4.4133,-4.4114,-4.4188,-4.4187,-4.4187,-4.4186,-4.4186,-4.448,-4.4453,-4.4462,-4.4455,-4.4426,-4.4421,-4.4379,-4.4361,-4.4348,-4.4348,-4.431,-4.4264,-4.4246,-4.4238,-4.4223,-4.4319,-4.4319,-4.4319,-4.4319,-4.4539,-4.4527,-4.4527,-4.4516,-4.4501,-4.4462,-4.4469,-4.4437,-4.4399,-4.4388,-4.4369,-4.4346,-4.434,-4.4325,-4.4316,-4.4301,-4.4415,-4.4415,-4.4415,-4.4592,-4.4576,-4.4591,-4.4555,-4.4529,-4.4507,-4.4511,-4.4497,-4.4449,-4.4418,-4.4378,-4.4374,-4.4336,-4.4326,-4.4295,-4.4282,-4.4253,0,0]}]]